Weather History for Windom, MN

Change the Weather History Date:

Sunday, February 27, 2011

  Actual Average Record
Temperature  
Mean Temperature 14 °F -  
Max Temperature 26 °F 35 °F 54 °F (1974)
Min Temperature 1 °F 19 °F -15 °F (1962)
Degree Days  
Heating Degree Days 52    
Moisture  
Dew Point 17 °F    
Average Humidity 91    
Maximum Humidity 100    
Minimum Humidity 80    
Precipitation  
Precipitation 0.00 in - - ()
Sea Level Pressure  
Sea Level Pressure 29.68 in    
Wind  
Wind Speed 8 mph (SW)    
Max Wind Speed 16 mph    
Max Gust Speed 17 mph    
Visibility 5 miles    
Events Fog , Snow    
Averages and records for this station are not official NWS values.
T = Trace of Precipitation, MM = Missing Value Source: NWS Daily Summary

Daily Weather History Graph

Daily Weather History Graph

Search for Another Location

Airport:

Trip Planner

Search our weather history database for the weather conditions in past years. The results will help you decide how hot, cold, wet, or windy it might be!

Date:

Astronomy

Feb. 27, 2011 Rise Set
Actual Time 7:00 AM CST 6:06 PM CST
Civil Twilight 6:32 AM CST 6:35 PM CST
Nautical Twilight 5:58 AM CST 7:08 PM CST
Astronomical Twilight 5:25 AM CST 7:41 PM CST
Moon 4:01 AM CST (2/27) 1:13 PM CST (2/27)
Length of Visible Light 12h 03m
Length of Day
11h 05m
Waning Crescent, 23% of the Moon is Illuminated
Feb 27
Waning Crescent
Mar 4
New
Mar 12
First Quarter
Mar 19
Full
Mar 26
Last Quarter

Hourly Weather History & Observations

Time (CST) Temp. Windchill Dew Point Humidity Pressure Visibility Wind Dir Wind Speed Gust Speed Precip Events Conditions
12:12 AM 1.4 °F -8.3 °F -0.4 °F 92% 29.70 in 7.0 mi SSE 4.6 mph - N/A Snow Light Snow
12:52 AM 3.2 °F -6.2 °F 1.4 °F 92% 29.70 in 10.0 mi SSE 4.6 mph - N/A Snow Light Snow
1:12 AM 6.8 °F -3.5 °F 3.2 °F 85% 29.69 in 10.0 mi SSE 5.8 mph - N/A   Overcast
1:33 AM 6.8 °F - 5.0 °F 92% 29.69 in 10.0 mi Calm Calm - N/A   Overcast
1:52 AM 6.8 °F -0.1 °F 5.0 °F 92% 29.69 in 10.0 mi ESE 3.5 mph - N/A Snow Light Snow
2:32 AM 10.4 °F 0.8 °F 10.4 °F 100% 29.67 in 7.0 mi South 5.8 mph - N/A   Overcast
2:52 AM 15.8 °F 7.2 °F 14.0 °F 93% 29.66 in 3.0 mi South 5.8 mph - N/A   Overcast
3:33 AM 15.8 °F 7.2 °F 15.8 °F 100% 29.64 in 3.0 mi South 5.8 mph - N/A   Overcast
3:52 AM 15.8 °F 6.1 °F 15.8 °F 100% 29.63 in 2.5 mi SSE 6.9 mph - N/A   Overcast
4:12 AM 17.6 °F 8.2 °F 15.8 °F 93% 29.63 in 3.0 mi South 6.9 mph - N/A   Overcast
4:32 AM 17.6 °F 4.3 °F 17.6 °F 100% 29.63 in 4.0 mi SSW 12.7 mph 17.3 mph N/A   Overcast
4:53 AM 17.6 °F 7.3 °F 17.6 °F 100% 29.63 in 4.0 mi SSW 8.1 mph - N/A   Overcast
5:12 AM 19.4 °F 8.6 °F 17.6 °F 93% 29.64 in 4.0 mi South 9.2 mph - N/A   Overcast
5:33 AM 19.4 °F 11.5 °F 17.6 °F 93% 29.64 in 3.0 mi SSW 5.8 mph - N/A   Overcast
5:52 AM 19.4 °F 11.5 °F 17.6 °F 93% 29.64 in 2.5 mi South 5.8 mph - N/A   Overcast
6:13 AM 19.4 °F 10.4 °F 17.6 °F 93% 29.64 in 2.0 mi South 6.9 mph - N/A   Overcast
6:32 AM 19.4 °F 12.8 °F 17.6 °F 93% 29.64 in 2.0 mi South 4.6 mph - N/A   Overcast
6:53 AM 19.4 °F 12.8 °F 19.4 °F 100% 29.63 in 1.8 mi South 4.6 mph - N/A   Overcast
7:12 AM 19.4 °F 11.5 °F 19.4 °F 100% 29.62 in 1.0 mi South 5.8 mph - N/A   Overcast
7:32 AM 19.4 °F 9.5 °F 19.4 °F 100% 29.62 in 0.5 mi South 8.1 mph - N/A Fog Light Freezing Fog
7:53 AM 19.4 °F 10.4 °F 19.4 °F 100% 29.63 in 0.8 mi South 6.9 mph - N/A   Overcast
8:12 AM 21.2 °F 12.6 °F 19.4 °F 93% 29.64 in 0.8 mi South 6.9 mph - N/A   Overcast
8:32 AM 21.2 °F 11.7 °F 21.2 °F 100% 29.64 in 0.8 mi South 8.1 mph - N/A   Overcast
8:53 AM 21.2 °F 10.9 °F 21.2 °F 100% 29.64 in 0.8 mi South 9.2 mph - N/A   Overcast
9:12 AM 21.2 °F 10.1 °F 21.2 °F 100% 29.65 in 1.0 mi South 10.4 mph - N/A   Overcast
9:32 AM 23.0 °F 11.7 °F 21.2 °F 93% 29.65 in 1.0 mi SSW 11.5 mph - N/A   Overcast
9:52 AM 23.0 °F 13.9 °F 21.2 °F 93% 29.65 in 1.0 mi SSW 8.1 mph - N/A   Overcast
10:52 AM 24.8 °F 15.3 °F 23.0 °F 93% 29.66 in 1.2 mi SW 9.2 mph - N/A   Overcast
11:12 AM 24.8 °F 14.6 °F 23.0 °F 93% 29.66 in 2.5 mi WSW 10.4 mph - N/A   Overcast
11:33 AM 24.8 °F 14.6 °F 23.0 °F 93% 29.67 in 3.0 mi WSW 10.4 mph - N/A   Overcast
11:52 AM 26.6 °F 16.2 °F 23.0 °F 86% 29.67 in 4.0 mi WSW 11.5 mph - N/A   Overcast
12:12 PM 26.6 °F 15.7 °F 23.0 °F 86% 29.67 in 4.0 mi WSW 12.7 mph - N/A   Overcast
12:32 PM 26.6 °F 15.2 °F 21.2 °F 80% 29.68 in 4.0 mi WSW 13.8 mph - N/A   Overcast
12:52 PM 26.6 °F 16.2 °F 21.2 °F 80% 29.67 in 4.0 mi WSW 11.5 mph - N/A   Overcast
1:12 PM 26.6 °F 17.5 °F 21.2 °F 80% 29.66 in 4.0 mi West 9.2 mph - N/A   Haze
1:32 PM 26.6 °F 15.7 °F 21.2 °F 80% 29.66 in 4.0 mi West 12.7 mph - N/A   Overcast
1:52 PM 24.8 °F 12.9 °F 21.2 °F 86% 29.66 in 4.0 mi West 13.8 mph - N/A   Overcast
2:13 PM 24.8 °F 13.4 °F 21.2 °F 86% 29.67 in 4.0 mi West 12.7 mph - N/A   Mostly Cloudy
2:32 PM 24.8 °F 14.0 °F 21.2 °F 86% 29.66 in 4.0 mi West 11.5 mph - N/A   Scattered Clouds
2:52 PM 24.8 °F 14.0 °F 21.2 °F 86% 29.67 in 4.0 mi West 11.5 mph - N/A   Clear
3:13 PM 24.8 °F 14.0 °F 21.2 °F 86% 29.67 in 4.0 mi WNW 11.5 mph - N/A   Clear
3:32 PM 24.8 °F 12.9 °F 21.2 °F 86% 29.68 in 5.0 mi WNW 13.8 mph - N/A   Clear
3:53 PM 24.8 °F 15.3 °F 19.4 °F 80% 29.68 in 5.0 mi WNW 9.2 mph - N/A   Clear
4:12 PM 24.8 °F 15.3 °F 19.4 °F 80% 29.70 in 7.0 mi NW 9.2 mph - N/A   Clear
4:32 PM 24.8 °F 14.0 °F 19.4 °F 80% 29.69 in 10.0 mi NW 11.5 mph - N/A   Clear
4:53 PM 21.2 °F 9.5 °F 17.6 °F 86% 29.70 in 10.0 mi NNW 11.5 mph - N/A   Clear
5:12 PM 21.2 °F 7.3 °F 17.6 °F 86% 29.70 in 10.0 mi NW 16.1 mph - N/A   Clear
5:52 PM 17.6 °F 4.3 °F 15.8 °F 93% 29.72 in 10.0 mi NNW 12.7 mph - N/A   Clear
6:12 PM 15.8 °F 4.2 °F 12.2 °F 86% 29.75 in 10.0 mi NW 9.2 mph - N/A   Clear
6:33 PM 14.0 °F 1.2 °F 12.2 °F 93% 29.77 in 10.0 mi NW 10.4 mph - N/A   Clear
7:12 PM 15.8 °F 3.4 °F 12.2 °F 86% 29.81 in 10.0 mi NW 10.4 mph - N/A   Clear
7:33 PM 14.0 °F 6.5 °F 10.4 °F 86% 29.82 in 10.0 mi WNW 4.6 mph - N/A   Clear
7:52 PM 10.4 °F -3.3 °F 8.6 °F 92% 29.82 in 10.0 mi NW 10.4 mph - N/A   Clear
8:12 PM 10.4 °F -4.1 °F 8.6 °F 92% 29.82 in 10.0 mi NNW 11.5 mph - N/A   Clear
8:33 PM 10.4 °F -6.6 °F 8.6 °F 92% 29.82 in 10.0 mi NW 16.1 mph - N/A   Clear
8:52 PM 10.4 °F -6.6 °F 6.8 °F 85% 29.82 in 10.0 mi NW 16.1 mph - N/A   Clear
9:13 PM 10.4 °F -6.6 °F 6.8 °F 85% 29.84 in 10.0 mi NNW 16.1 mph - N/A   Clear
9:32 PM 10.4 °F -6.6 °F 6.8 °F 85% 29.84 in 10.0 mi NNW 16.1 mph - N/A   Clear
9:52 PM 10.4 °F -3.3 °F 6.8 °F 85% 29.85 in 10.0 mi NW 10.4 mph - N/A   Clear
10:12 PM 10.4 °F -4.8 °F 6.8 °F 85% 29.85 in 10.0 mi NW 12.7 mph - N/A   Clear
10:32 PM 10.4 °F -4.1 °F 6.8 °F 85% 29.86 in 10.0 mi NW 11.5 mph - N/A   Clear
10:53 PM 8.6 °F -5.5 °F 6.8 °F 92% 29.87 in 10.0 mi NW 10.4 mph - N/A   Clear
11:12 PM 10.4 °F -6.0 °F 6.8 °F 85% 29.87 in 10.0 mi NW 15.0 mph - N/A   Clear
11:33 PM 10.4 °F -6.0 °F 6.8 °F 85% 29.87 in 10.0 mi NW 15.0 mph - N/A   Clear
11:52 PM 8.6 °F -7.7 °F 5.0 °F 85% 29.87 in 10.0 mi NW 13.8 mph - N/A   Clear